Flag for Argentina Weather past 2 weeks in Mendoza, Mendoza, Argentina

Now
64 °F

Clear.


Feels Like: 64 °F
Forecast: 59 / 71 °F
Wind: No wind

Location: Mendoza Aerodrome

Current Time: Apr 27, 2015 at 2:52:32 AM

Latest Report: Apr 27, 2015 at 2:00 AM


Visibility: 10 mi

Pressure: 30.04 "Hg

Humidity: 73%

Dew point: 55 °F

Location of MendozaLocation

Historic Weather in Mendoza — Graph

°F

Mendoza temperature yesterday

Maximum temperature yesterday: 81 °F (at 5:00 PM)
Minimum temperature yesterday: 57 °F (at 8:00 AM)
Average temperature yesterday: 69 °F

Past Weeks' High & Low Weather Summary

 TemperatureHumidityPressure
High88 °F (Apr 13, 4:00 PM)100% (Apr 16, 7:00 AM)30.18 "Hg (Apr 16, 7:00 AM)
Low48 °F (Apr 18, 6:00 AM)27% (Apr 20, 3:00 PM)29.56 "Hg (Apr 19, 2:00 AM)
Average65 °F61%29.97 "Hg
* Reported Apr 12 1:00 AM — Apr 27 1:00 AM, Mendoza, Weather by CustomWeather, © 2015

Note: Actual official high and low records may vary slightly from our data, if they occured in-between our weather recording intervals... More about our weather records

Advertising

Mendoza weather history for previous 24 hours

 ConditionsComfort  
Time TempWeatherWind HumidityBarometerVisibility
1:00 AM
Mon, Apr 27
66 °FClear.No wind68%30.07 "Hg10 mi
12:00 AM66 °FClear.3 mph64%30.07 "Hg10 mi
11:00 PM
Sun, Apr 26
70 °FClear.No wind60%30.04 "Hg10 mi
10:00 PM70 °FClear.No wind57%30.04 "Hg10 mi
9:00 PM72 °FClear.No wind65%30.01 "Hg10 mi
8:00 PM73 °FClear.2 mph57%29.98 "Hg10 mi
7:00 PM77 °FClear.2 mph47%29.95 "Hg10 mi
6:00 PM79 °FClear.6 mph42%29.92 "Hg10 mi
5:00 PM81 °FSunny.6 mph39%29.92 "Hg10 mi
4:00 PM79 °FSunny.6 mph42%29.92 "Hg10 mi
3:00 PM79 °FSunny.6 mph42%29.95 "Hg10 mi
2:00 PM77 °FSunny.6 mph44%29.98 "Hg10 mi
1:00 PM77 °FSunny.6 mph44%30.01 "Hg10 mi
9:00 AM59 °FSunny.2 mph82%29.98 "Hg10 mi
8:00 AM57 °FClear.2 mph82%29.95 "Hg5 mi
7:00 AM59 °FClear.2 mph77%29.95 "Hg10 mi
6:00 AM63 °FClear.5 mph68%29.92 "Hg10 mi
5:00 AM63 °FClear.5 mph68%29.92 "Hg10 mi
4:00 AM63 °FClear.5 mph68%29.92 "Hg10 mi
3:00 AM64 °FClear.3 mph64%29.92 "Hg10 mi
2:00 AM64 °FClear.3 mph68%29.92 "Hg10 mi
Weather by CustomWeather, © 2015

See weather overviewHow to use our weather pages